Regional Weather Roundup
Issued by NWS Raleigh/Durham, NC

Home | Current Version | Previous Version | Text Only | Print | Product List | Glossary On
Versions: 1 2 3 4 5 6 7 8 9 10 11 12 13 14 15 16 17 18 19 20 21 22 23 24 25 26 27 28 29 30 31 32 33 34 35 36 37 38 39 40 41 42 43 44 45 46 47 48 49 50
303
ASUS42 KRAH 162310
RWRRAH
NORTH CAROLINA WEATHER ROUNDUP
NATIONAL WEATHER SERVICE RALEIGH NC
700 PM EDT THU AUG 16 2018

NOTE: "FAIR" INDICATES FEW OR NO CLOUDS BELOW 12,000 FEET WITH NO
SIGNIFICANT WEATHER AND/OR OBSTRUCTIONS TO VISIBILITY.

NCZ001-053-055-056-065-067-170000-
WESTERN NORTH CAROLINA

CITY           SKY/WX    TMP DP  RH WIND       PRES   REMARKS
ASHEVILLE      PTSUNNY   80  69  69 SW6       30.21R
JEFFERSON      CLOUDY    74  66  74 CALM      30.26R
HICKORY        FAIR      86  67  52 S7        30.14R
RUTHERFORDTON  FAIR      86  68  54 SW3       30.15R
MOUNT AIRY     FAIR      86  72  62 S3        30.16S
BOONE          FAIR      77  62  58 CALM      30.27R
$$

NCZ021-022-025-041-071-084-088-170000-
CENTRAL NORTH CAROLINA

CITY           SKY/WX    TMP DP  RH WIND       PRES   REMARKS
CHARLOTTE      FAIR      89  70  53 SW5       30.12S
GREENSBORO     FAIR      86  68  54 SW7       30.11F
WINSTON-SALEM  FAIR      88  66  48 VRB5      30.13S
RALEIGH-DURHAM FAIR      88  71  57 W5        30.10S
FORT BRAGG     FAIR      88  70  55 SW6       30.10R
FAYETTEVILLE   FAIR      87  71  58 SW8       30.10R
BURLINGTON     FAIR      88  70  55 S5        30.10S
LAURINBURG     FAIR      84  78  82 CALM      30.11S HX  95
$$

NCZ011-015-027-028-043-044-047-080-103-170000-
NORTHEASTERN NORTH CAROLINA

CITY           SKY/WX    TMP DP  RH WIND       PRES   REMARKS
ROCKY MT-WILSO FAIR      86  77  74 CALM      30.10R HX  97
GREENVILLE     FAIR      86  73  66 E3        30.11S
WASHINGTON     FAIR      83  74  73 SE5       30.11R
ELIZABETH CITY FAIR      88  76  67 S3        30.09S HX  99
MANTEO         FAIR      82  73  76 S12       30.11S
CAPE HATTERAS  FAIR      84  77  79 SW7       30.13S
$$

NCZ078-087-090-091-093-098-101-170000-
SOUTHEASTERN NORTH CAROLINA

CITY           SKY/WX    TMP DP  RH WIND       PRES   REMARKS
LUMBERTON      FAIR      84  73  69 CALM      30.10S
GOLDSBORO      FAIR      87  74  65 S5        30.08S HX  96
KINSTON        SUNNY     90  72  55 SW5       30.11R HX  96
KENANSVILLE    FAIR      82  72  69 SW9       30.11S
NEW BERN       CLOUDY    83  77  82 CALM      30.12S
CHERRY POINT   FAIR      84  78  82 S8        30.12S HX  95
BEAUFORT       FAIR      83  77  82 SW16      30.12S
JACKSONVILLE   PTSUNNY   81  72  74 E8        30.11R THUNDER
WILMINGTON     FAIR      85  74  69 SW12      30.12R
$$





USA.gov is the U.S. government's official web portal to all federal, state and local government web resources and services.